Starlink 31474

operational
NORAD ID: 59304 Int'l Des: 2024-056 Owner: SPXS Country: US Constellation: starlink
LEOCIRCULAR

About Starlink 31474

Description loading...

Live Position

Loading 3D Globe...

Upcoming Passes

Altitude History

Altitude vs Time

uPlot chart will show altitude changes over time

Two-Line Element Set

1 59304U 24056J 25351.30514776 -.00001016 00000-0 -27385-4 0 9996
2 59304 43.0040 329.1388 0001920 280.6512 79.4123 15.27586561 98632
Epoch: Dec 17, 2025 • Age: 11 hours

Current Status

Altitude 493.4 km
Velocity 7.62 km/s
Sub-Earth Point -39.15°S, 90.45°W
Launch Date Mar 24, 2024
Age 1.7 years
Type internet

Technical Details

Classification Payload
Mass 730.00 kg
Dry Mass 700.00 kg
Total Mass 730.00 kg
Length 0.30 m
Diameter 4.10 m
Span 29.00 m
Shape Box + pan
Manufacturer SPXS
Bus Type Starlink V2M
Phase Status In Orbit
Owner/State SPXS/US

Large Constellations

Loading constellations...